Starlink 6173

operational
NORAD ID: 56385 Int'l Des: 2023-061 Owner: SPXS Country: US Constellation: starlink
LEOCIRCULAR

Starlink 6173について

説明を読み込み中...

リアルタイム位置

3D地球を読み込み中...

次回通過

高度履歴

Altitude vs Time

uPlot chart will show altitude changes over time

軌道要素

1 56385U 23061M 26036.95941441 .00000632 00000-0 61811-4 0 9995
2 56385 43.0047 9.6994 0001071 271.5751 88.4969 15.02538686151983
Epoch: Feb 5, 2026 • Age: 7 hours

現在のステータス

高度 561.9 km
速度 7.59 km/s
衛星直下点 38.53°N, 95.07°W
打ち上げ日 May 4, 2023
運用期間 2.7 years
タイプ internet

技術仕様

分類 Payload
質量 305.00 kg
乾燥質量 290.00 kg
総質量 305.00 kg
長さ 0.20 m
直径 2.80 m
スパン 9.00 m
形状 Box + pan
製造者 SPXS
バスタイプ Starlink
フェーズステータス In Orbit
所有者/国 SPXS/US

大規模コンステレーション

Loading constellations...